Tiempo atmosférico en la estación meteorológica de Puerto de Pajares, Asturias (1480 m.)



Fecha
DESCASC
Temp. máxima en grados centígrados (hora)
DESCASC
Temp. mínima en grados centígrados (hora)
DESCASC
Temp. media en grados centígrados
DESCASC
Racha de viento máxima en m/sg (hora)
DESCASC
Velocidad máxima media en intervalos de 10 minutos(hora)
DESCASC
Precipitaciones diarias en mm
DESCASC
Precipitaciones de 00:00 a 06:00 en mm
DESCASC
Precipitaciones de 06:00 a 12:00 en mm
DESCASC
Precipitaciones de 12:00 a 18:00 en mm
DESCASC
Precipitaciones de 18:00 a 24:00 en mm
DESCASC

Gráficas

Temp. máximas Temp. mínimas Temp. medias Precipitaciones Rachas de viento máximas Velocidades máximas media en intervalos de 10 minutos

Datos horarios

Fecha y hora oficial Temperatura (ºC) Velocidad del viento (km/h) Dirección del viento Racha (km/h) Dirección de racha Precipitación (mm) Presión (hPa) Tendencia (hPa) Humedad (%)
2019-08-19 23:00:00 7.6 5 Noroeste 13 Noroeste 0.5 -- -- 91
2019-08-19 22:00:00 7.7 10 Noroeste 19 Noroeste 1.5 -- -- 91
2019-08-19 21:00:00 8.2 9 Noroeste 17 Noroeste 1.1 -- -- 91
2019-08-19 20:00:00 8.2 9 Noroeste 23 Noroeste 0.4 -- -- 91
2019-08-19 19:00:00 8.2 9 Noroeste 21 Oeste 0 -- -- 91
2019-08-19 18:00:00 8.8 9 Noroeste 23 Oeste 0 -- -- 90
2019-08-19 17:00:00 9.7 6 Noroeste 13 Noroeste 0 -- -- 90
2019-08-19 16:00:00 9.7 6 Noroeste 13 Noroeste 0 -- -- 91
2019-08-19 15:00:00 9.3 5 Noroeste 11 Noroeste 0 -- -- 91
2019-08-19 14:00:00 8.6 4 Noroeste 13 Noroeste 0 -- -- 91
2019-08-19 13:00:00 8 5 Noroeste 12 Noroeste 0.1 -- -- 91
2019-08-19 12:00:00 7.6 5 Noroeste 9 Noroeste 0.2 -- -- 91
2019-08-19 11:00:00 7.3 5 Noroeste 10 Noroeste 0.4 -- -- 91
2019-08-19 10:00:00 7 4 Noroeste 9 Noroeste 0.2 -- -- 91
2019-08-19 09:00:00 6.8 4 Noroeste 9 Norte 0 -- -- 91
2019-08-19 08:00:00 6.6 4 Noroeste 6 Noroeste 0 -- -- 91
2019-08-19 07:00:00 6.5 2 Oeste 10 Noroeste 0 -- -- 91
2019-08-19 06:00:00 6.4 0 Calma 8 Noroeste 0 -- -- 91
2019-08-19 05:00:00 6.6 4 Noroeste 12 Noroeste 0 -- -- 91
2019-08-19 04:00:00 6.6 5 Noroeste 10 Noroeste 0 -- -- 91
2019-08-19 03:00:00 6.7 5 Noroeste 11 Noroeste 0.2 -- -- 91
2019-08-19 02:00:00 6.6 7 Noroeste 12 Noroeste 0.4 -- -- 91
2019-08-19 01:00:00 6.9 5 Noroeste 15 Noroeste 0.6 -- -- 91
2019-08-19 00:00:00 7.2 7 Noroeste 14 Noroeste 0.6 -- -- 91
2019-08-18 23:00:00 7.4 5 Noroeste 15 Norte 1.1 -- -- 91
2019-08-18 22:00:00 8.5 7 Noroeste 14 Noroeste 1 -- -- 91
2019-08-18 21:00:00 8.6 6 Noroeste 16 Noroeste 1.2 -- -- 91
2019-08-18 20:00:00 9.1 6 Noroeste 14 Noroeste 1.1 -- -- 90
2019-08-18 19:00:00 9.9 6 Noroeste 11 Noroeste 0.8 -- -- 90
2019-08-18 18:00:00 10.7 6 Noroeste 14 Noroeste 0.6 -- -- 90
2019-08-18 17:00:00 11.3 6 Noroeste 12 Noroeste 0.1 -- -- 90
2019-08-18 16:00:00 11.4 4 Noroeste 10 Noroeste 0.1 -- -- 90
2019-08-18 15:00:00 10.9 5 Noroeste 16 Noroeste 1.7 -- -- 90
2019-08-18 14:00:00 10.2 5 Noroeste 13 Oeste 1 -- -- 90
2019-08-18 13:00:00 11 6 Noroeste 14 Noroeste 1.4 -- -- 90
2019-08-18 12:00:00 11.8 6 Noroeste 12 Noroeste 0.1 -- -- 90
2019-08-18 11:00:00 12.6 5 Noroeste 9 Noroeste 0 -- -- 87
2019-08-18 10:00:00 12.8 3 Oeste 12 Noroeste 0 -- -- 83
2019-08-18 09:00:00 13.1 7 Noroeste 22 Oeste 0 -- -- 66
2019-08-18 08:00:00 15.8 6 Sudoeste 26 Sur 0 -- -- 54
2019-08-18 07:00:00 15.9 14 Sur 24 Sur 0 -- -- 44
2019-08-18 06:00:00 15.1 2 Noroeste 23 Sur 0 -- -- 40
2019-08-18 05:00:00 16.7 15 Sur 27 Sur 0 -- -- 37
2019-08-18 04:00:00 12.7 0 Calma 9 Sur 0 -- -- 49
2019-08-18 03:00:00 15.2 0 Calma 31 Sur 0 -- -- 41
2019-08-18 02:00:00 17.2 8 Sur 33 Sur 0 -- -- 38
2019-08-18 01:00:00 17.4 15 Sudoeste 31 Sudoeste 0 -- -- 46
2019-08-18 00:00:00 17.4 14 Sudoeste 28 Sudoeste 0 -- -- 52
2019-08-17 23:00:00 18.1 14 Sudoeste 27 Sudoeste 0 -- -- 48
2019-08-17 22:00:00 17.9 10 Sudoeste 17 Sudoeste 0 -- -- 46
2019-08-17 21:00:00 17.2 6 Sudoeste 10 Sudoeste 0 -- -- 59
2019-08-17 20:00:00 20.7 0 Calma 10 Noroeste 0 -- -- 61
2019-08-17 19:00:00 20.9 3 Norte 13 Noroeste 0 -- -- 55
2019-08-17 18:00:00 21.4 7 Noroeste 19 Norte 0 -- -- 53
2019-08-17 17:00:00 21.9 5 Noroeste 13 Noroeste 0 -- -- 51
2019-08-17 16:00:00 22.1 6 Norte 14 Norte 0 -- -- 51
2019-08-17 15:00:00 22.6 6 Noroeste 16 Oeste 0 -- -- 50
2019-08-17 14:00:00 22.8 4 Sudoeste 18 Noroeste 0 -- -- 42
2019-08-17 13:00:00 22.3 7 Sudoeste 19 Sudeste 0 -- -- 40
2019-08-17 12:00:00 21.2 10 Sudeste 23 Sur 0 -- -- 40
2019-08-17 11:00:00 20.7 6 Sudoeste 18 Oeste 0 -- -- 42
2019-08-17 10:00:00 18.6 0 Calma 17 Sur 0 -- -- 51
2019-08-17 09:00:00 16.6 4 Sur 13 Sur 0 -- -- 57
2019-08-17 08:00:00 14.5 2 Este 27 Sur 0 -- -- 54
2019-08-17 07:00:00 14.8 13 Sudoeste 26 Sur 0 -- -- 50
2019-08-17 06:00:00 15.3 13 Sur 23 Sudoeste 0 -- -- 47
2019-08-17 05:00:00 13.5 5 Sudoeste 16 Sur 0 -- -- 51
2019-08-17 04:00:00 14 8 Sur 14 Sur 0 -- -- 51
2019-08-17 03:00:00 13.7 10 Sur 14 Sur 0 -- -- 50
2019-08-17 02:00:00 12.1 8 Sur 12 Sudoeste 0 -- -- 65
2019-08-17 01:00:00 13.6 5 Oeste 13 Sudoeste 0 -- -- 60
2019-08-17 00:00:00 13.7 9 Sudoeste 17 Sudoeste 0 -- -- 60
2019-08-16 23:00:00 14.4 12 Sudoeste 16 Sur 0 -- -- 75
2019-08-16 22:00:00 14.8 4 Sur 12 Noroeste 0 -- -- 80
2019-08-16 21:00:00 17 2 Oeste 7 Noroeste 0 -- -- 70
2019-08-16 20:00:00 19.5 0 Calma 9 Oeste 0 -- -- 64
2019-08-16 19:00:00 20.2 5 Noroeste 18 Noroeste 0 -- -- 59
2019-08-16 18:00:00 20.4 9 Noroeste 15 Noroeste 0 -- -- 58
2019-08-16 17:00:00 21 6 Noroeste 16 Noroeste 0 -- -- 55
2019-08-16 16:00:00 21.2 5 Norte 18 Noroeste 0 -- -- 53
2019-08-16 15:00:00 21.3 5 Noroeste 14 Noroeste 0 -- -- 50
2019-08-16 14:00:00 21.5 5 Noroeste 13 Norte 0 -- -- 45
2019-08-16 13:00:00 20.3 6 Noroeste 16 Sudeste 0 -- -- 49
2019-08-16 12:00:00 20.6 5 Sudeste 20 Sur 0 -- -- 49
2019-08-16 11:00:00 19.4 10 Sudeste 17 Sudeste 0 -- -- 52
2019-08-16 10:00:00 18.1 12 Sur 21 Sudeste 0 -- -- 56
2019-08-16 09:00:00 16.7 10 Sur 23 Sur 0 -- -- 56
2019-08-16 08:00:00 14.4 15 Sur 23 Sur 0 -- -- 60
2019-08-16 07:00:00 14.6 5 Sur 20 Sur 0 -- -- 65
2019-08-16 06:00:00 14.8 11 Sur 21 Sudeste 0 -- -- 66
2019-08-16 05:00:00 14.5 11 Sur 17 Sur 0 -- -- 67
2019-08-16 04:00:00 14 10 Sur 16 Sur 0 -- -- 69
2019-08-16 03:00:00 14.8 10 Sur 17 Sur 0 -- -- 65
2019-08-16 02:00:00 14.1 11 Sur 17 Sur 0 -- -- 60
2019-08-16 01:00:00 14.6 16 Sur 20 Sur 0 -- -- 37
2019-08-16 00:00:00 13.2 14 Sudoeste 19 Sudoeste 0 -- -- 40
2019-08-15 23:00:00 11.6 7 Sur 9 Sur 0 -- -- 85
2019-08-15 22:00:00 12.9 0 Calma 8 Oeste 0 -- -- 84
2019-08-15 21:00:00 14.1 3 Oeste 8 Noroeste 0 -- -- 79
2019-08-15 20:00:00 15.5 0 Calma 8 Noroeste 0 -- -- 76
2019-08-15 19:00:00 14.4 4 Noroeste 13 Noroeste 0 -- -- 80
2019-08-15 18:00:00 15.8 4 Noroeste 13 Noroeste 0 -- -- 77
2019-08-15 17:00:00 15.4 9 Noroeste 15 Noroeste 0 -- -- 75
2019-08-15 16:00:00 16.5 6 Noroeste 14 Noroeste 0 -- -- 71
2019-08-15 15:00:00 16.2 8 Noroeste 19 Noroeste 0 -- -- 71
2019-08-15 14:00:00 16.1 7 Noroeste 15 Noroeste 0 -- -- 67
2019-08-15 13:00:00 16.7 5 Noroeste 10 Noroeste 0 -- -- 53
2019-08-15 12:00:00 15.9 4 Noroeste 11 Oeste 0 -- -- 43
2019-08-15 11:00:00 15.6 4 Noroeste 11 Noroeste 0 -- -- 51
2019-08-15 10:00:00 15.1 2 Norte 11 Norte 0 -- -- 50
2019-08-15 09:00:00 12.2 0 Calma 7 Sudeste 0 -- -- 57
2019-08-15 08:00:00 8.8 2 Sur 13 Sudoeste 0 -- -- 75
2019-08-15 07:00:00 8.8 6 Sur 10 Sur 0 -- -- 84
2019-08-15 06:00:00 10.6 4 Norte 10 Noroeste 0 -- -- 90
2019-08-15 05:00:00 10.9 6 Noroeste 14 Sudoeste 0 -- -- 90
2019-08-15 04:00:00 11.1 7 Noroeste 15 Noroeste 0 -- -- 90
2019-08-15 03:00:00 11.7 4 Noroeste 11 Noroeste 0 -- -- 90
2019-08-15 02:00:00 11.8 3 Noroeste 17 Noroeste 0 -- -- 90
2019-08-15 01:00:00 12.6 10 Noroeste 20 Noroeste 0 -- -- 90
2019-08-15 00:00:00 12.9 9 Noroeste 17 Noroeste 0 -- -- 90
2019-08-14 23:00:00 13.5 6 Noroeste 10 Noroeste 0 -- -- 90
2019-08-14 22:00:00 13.9 0 Calma 11 Noroeste 0 -- -- 89
2019-08-14 21:00:00 14.4 4 Norte 8 Norte 0 -- -- 85
2019-08-14 20:00:00 15.5 2 Noroeste 14 Norte 0 -- -- 79
2019-08-14 19:00:00 16.9 8 Noroeste 19 Noroeste 0 -- -- 71
2019-08-14 18:00:00 18.3 8 Noroeste 20 Noroeste 0 -- -- 60
2019-08-14 17:00:00 18.8 9 Noroeste 19 Noroeste 0 -- -- 56
2019-08-14 16:00:00 18.9 7 Noroeste 15 Norte 0 -- -- 55
2019-08-14 15:00:00 18.2 3 Noroeste 13 Noroeste 0 -- -- 56
2019-08-14 14:00:00 17.7 7 Noroeste 11 Norte 0 -- -- 52
2019-08-14 13:00:00 18.3 4 Norte 10 Noroeste 0 -- -- 51
2019-08-14 12:00:00 17.4 5 Oeste 13 Oeste 0 -- -- 50
2019-08-14 11:00:00 18.3 3 Nordeste 10 Sudeste 0 -- -- 49
2019-08-14 10:00:00 16.6 5 Sudeste 9 Sudeste 0 -- -- 48
2019-08-14 09:00:00 13.6 3 Sur 10 Sudoeste 0 -- -- 55
2019-08-14 08:00:00 10.9 9 Sur 12 Sudoeste 0 -- -- 60
2019-08-14 07:00:00 10.3 4 Sur 22 Sur 0 -- -- 56
2019-08-14 06:00:00 13.2 13 Sur 25 Sur 0 -- -- 48
2019-08-14 05:00:00 12.1 17 Sur 24 Sur 0 -- -- 59
2019-08-14 04:00:00 12 19 Sur 27 Sur 0 -- -- 61
2019-08-14 03:00:00 12.8 10 Sur 24 Sudoeste 0 -- -- 46
2019-08-14 02:00:00 11.8 12 Sur 19 Sur 0 -- -- 66
2019-08-14 01:00:00 10.6 6 Sudoeste 10 Sur 0 -- -- 84
2019-08-14 00:00:00 10.2 2 Sudoeste 9 Sur 0 -- -- 83
2019-08-13 23:00:00 10.3 4 Sur 7 Oeste 0 -- -- 84
2019-08-13 22:00:00 11.7 0 Calma 3 Noroeste 0 -- -- 85
2019-08-13 21:00:00 11.6 3 Noroeste 12 Noroeste 0 -- -- 84
2019-08-13 20:00:00 12.9 6 Noroeste 10 Noroeste 0 -- -- 74
2019-08-13 19:00:00 14.6 4 Oeste 14 Noroeste 0 -- -- 64
2019-08-13 18:00:00 14.5 6 Noroeste 15 Noroeste 0 -- -- 64
2019-08-13 17:00:00 14.7 6 Noroeste 17 Norte 0 -- -- 62
2019-08-13 16:00:00 14.3 9 Noroeste 18 Noroeste 0 -- -- 61
2019-08-13 15:00:00 14.4 6 Noroeste 17 Noroeste 0 -- -- 57
2019-08-13 14:00:00 13.5 5 Noroeste 14 Noroeste 0 -- -- 56
2019-08-13 13:00:00 13.1 5 Noroeste 11 Noroeste 0 -- -- 57
2019-08-13 12:00:00 13.7 4 Nordeste 10 Norte 0 -- -- 57
2019-08-13 11:00:00 12.6 3 Norte 8 Nordeste 0 -- -- 61
2019-08-13 10:00:00 11.3 0 Calma 7 Este 0 -- -- 68
2019-08-13 09:00:00 9 0 Calma 10 Sudoeste 0 -- -- 77
2019-08-13 08:00:00 5.9 6 Sudoeste 10 Sudoeste 0 -- -- 82
2019-08-13 07:00:00 5.3 6 Sur 13 Sur 0 -- -- 86
2019-08-13 06:00:00 5.5 3 Sudoeste 7 Sudoeste 0 -- -- 90
2019-08-13 05:00:00 5.2 3 Noroeste 6 Oeste 0 -- -- 91
2019-08-13 04:00:00 5.1 0 Calma 8 Sudoeste 0 -- -- 91
2019-08-13 03:00:00 6.3 0 Calma 6 Noroeste 0 -- -- 91
2019-08-13 02:00:00 6.5 0 Calma 7 Noroeste 0 -- -- 91
2019-08-13 01:00:00 6.7 4 Noroeste 14 Noroeste 0 -- -- 91
2019-08-13 00:00:00 6.7 5 Noroeste 16 Noroeste 0 -- -- 91
2019-08-12 23:00:00 6.9 9 Noroeste 18 Noroeste 0 -- -- 91
2019-08-12 22:00:00 7 7 Noroeste 23 Noroeste 0 -- -- 91
2019-08-12 21:00:00 7.6 10 Noroeste 19 Noroeste 0 -- -- 90
2019-08-12 20:00:00 7.8 6 Noroeste 17 Noroeste 0 -- -- 87
2019-08-12 19:00:00 8 6 Noroeste 19 Noroeste 0 -- -- 85
2019-08-12 18:00:00 8.4 10 Noroeste 22 Noroeste 0 -- -- 80
2019-08-12 17:00:00 9.7 10 Noroeste 22 Noroeste 0 -- -- 70
2019-08-12 16:00:00 9.8 12 Noroeste 28 Oeste 0 -- -- 66
2019-08-12 15:00:00 10.1 10 Noroeste 22 Noroeste 0 -- -- 61
2019-08-12 14:00:00 10.3 9 Noroeste 24 Noroeste 0 -- -- 59
2019-08-12 13:00:00 9.8 11 Noroeste 28 Noroeste 0 -- -- 62
2019-08-12 12:00:00 7.9 12 Noroeste 21 Noroeste 0 -- -- 71
2019-08-12 11:00:00 7.4 13 Noroeste 25 Noroeste 0 -- -- 73
2019-08-12 10:00:00 5.9 9 Noroeste 20 Noroeste 0 -- -- 76
2019-08-12 09:00:00 5.8 9 Noroeste 19 Noroeste 0 -- -- 85
2019-08-12 08:00:00 4.9 15 Noroeste 28 Noroeste 0 -- -- 85
2019-08-12 07:00:00 5.3 8 Noroeste 18 Noroeste 0 -- -- 85
2019-08-12 06:00:00 5.3 6 Noroeste 16 Norte 0 -- -- 86
2019-08-12 05:00:00 5.4 10 Noroeste 20 Noroeste 0 -- -- 87
2019-08-12 04:00:00 5.3 9 Noroeste -- -- -- -- -- 89
2019-08-12 03:00:00 5.7 6 Noroeste 17 Noroeste 0 -- -- 89
2019-08-12 02:00:00 5.8 9 Noroeste 21 Noroeste 0 -- -- 90
2019-08-12 01:00:00 6 5 Noroeste 13 Oeste 0 -- -- 90
2019-08-12 00:00:00 6.4 6 Noroeste 19 Noroeste 0 -- -- 90
2019-08-11 23:00:00 6.8 8 Noroeste 20 Norte 0 -- -- 90
2019-08-11 22:00:00 6.9 8 Norte 22 Noroeste 0 -- -- 89
2019-08-11 21:00:00 7.2 7 Noroeste 16 Noroeste 0 -- -- 89
2019-08-11 20:00:00 7.5 4 Noroeste 18 Noroeste 0 -- -- 90
2019-08-11 19:00:00 6.8 10 Noroeste 24 Noroeste 0 -- -- 90
2019-08-11 18:00:00 7.3 12 Noroeste 34 Noroeste 0 -- -- 87
2019-08-11 17:00:00 10 8 Noroeste 20 Noroeste 0 -- -- 77
2019-08-11 16:00:00 10.3 8 Noroeste 21 Noroeste 0 -- -- 73
2019-08-11 15:00:00 11.4 9 Noroeste 17 Noroeste 0 -- -- 73
2019-08-11 14:00:00 10.4 6 Noroeste 18 Noroeste 0 -- -- 86
2019-08-11 13:00:00 9.1 6 Noroeste 17 Noroeste 0 -- -- 91
2019-08-11 12:00:00 8.6 6 Noroeste 13 Oeste 0 -- -- 91
2019-08-11 11:00:00 8.2 5 Noroeste 13 Oeste 0.3 -- -- 91
2019-08-11 10:00:00 8.3 4 Noroeste -- -- -- -- -- 91
2019-08-11 09:00:00 7.7 3 Norte 8 Noroeste 0 -- -- 91
2019-08-11 08:00:00 7.6 0 Calma 6 Noroeste 0 -- -- 91
2019-08-11 07:00:00 7.3 3 Noroeste 8 Noroeste 0 -- -- 91
2019-08-11 06:00:00 7.5 0 Calma 6 Noroeste 0 -- -- 91
2019-08-11 05:00:00 7.8 0 Calma 4 Este 0 -- -- 91
2019-08-11 04:00:00 7.8 0 Calma 6 Norte 0.1 -- -- 91
2019-08-11 03:00:00 -- -- -- -- -- -- -- -- --
2019-08-11 02:00:00 8.1 2 Noroeste 9 Noroeste 0.3 -- -- 91
2019-08-11 01:00:00 8.2 6 Noroeste 13 Noroeste 0.9 -- -- 91
2019-08-11 00:00:00 8.7 5 Noroeste 17 Noroeste 1.1 -- -- 91
2019-08-10 23:00:00 9 5 Noroeste 17 Noroeste 0.9 -- -- 91
2019-08-10 22:00:00 9.1 8 Noroeste 15 Noroeste 0.8 -- -- 91
2019-08-10 21:00:00 9.4 8 Noroeste 21 Noroeste 0.2 -- -- 91
2019-08-10 20:00:00 9.8 6 Noroeste 19 Noroeste 0 -- -- 90
2019-08-10 19:00:00 10.5 9 Noroeste 20 Noroeste 0 -- -- 88
2019-08-10 18:00:00 11.8 8 Noroeste 20 Noroeste 0 -- -- 81
2019-08-10 17:00:00 13.4 8 Noroeste 23 Noroeste 0 -- -- 69
2019-08-10 16:00:00 15 10 Noroeste 24 Noroeste 0 -- -- 61
2019-08-10 15:00:00 15 9 Noroeste 19 Noroeste 0 -- -- 62
2019-08-10 14:00:00 14.8 6 Noroeste 16 Noroeste 0 -- -- 63
2019-08-10 13:00:00 13.8 6 Noroeste 13 Noroeste 0 -- -- 61
2019-08-10 12:00:00 12.9 5 Noroeste 10 Noroeste 0 -- -- 59
2019-08-10 11:00:00 12.2 4 Noroeste 9 Noroeste 0 -- -- 60
2019-08-10 10:00:00 11.1 4 Noroeste 8 Noroeste 0 -- -- 61
2019-08-10 09:00:00 10 3 Oeste 10 Sudeste 0 -- -- 61
2019-08-10 08:00:00 7.2 6 Sudoeste 16 Sudoeste 0 -- -- 64
2019-08-10 07:00:00 6.4 5 Sur 12 Sur 0 -- -- 69
2019-08-10 06:00:00 8.8 9 Sudoeste 13 Sudoeste 0 -- -- 65
2019-08-10 05:00:00 9.5 8 Sur 22 Sur 0 -- -- 67
2019-08-10 04:00:00 9.5 5 Sur 16 Sudoeste 0 -- -- 65
2019-08-10 03:00:00 10.5 13 Sudoeste 23 Sur 0 -- -- 62
2019-08-10 02:00:00 10.2 4 Sur 17 Sur 0 -- -- 65
2019-08-10 01:00:00 10.6 7 Sudoeste 19 Sur 0 -- -- 65
2019-08-10 00:00:00 11 11 Sur 19 Sur 0 -- -- 65
2019-08-09 23:00:00 11.4 12 Sur 24 Sur 0 -- -- 61
2019-08-09 22:00:00 11.9 4 Sur 20 Sur 0 -- -- 57
2019-08-09 21:00:00 12.7 9 Sudoeste 25 Sur 0 -- -- 50
2019-08-09 20:00:00 13.2 7 Sur 25 Sur 0 -- -- 54
2019-08-09 19:00:00 13.8 6 Sudeste 28 Sudeste 0 -- -- 55
2019-08-09 18:00:00 14.1 11 Sudoeste 41 Sudoeste 0 -- -- 53
2019-08-09 17:00:00 14 14 Sur 42 Sur 0 -- -- 50
2019-08-09 16:00:00 14.3 29 Sudoeste 54 Sudoeste 0 -- -- 44
2019-08-09 15:00:00 15.8 18 Sur 48 Sudoeste 0 -- -- 42
2019-08-09 14:00:00 15 23 Sur 49 Sudoeste 0 -- -- 43
2019-08-09 13:00:00 15 24 Sudoeste 62 Sudoeste 0 -- -- 40
2019-08-09 12:00:00 15.9 17 Sur 44 Sur 0 -- -- 41
2019-08-09 11:00:00 15.6 19 Sur 51 Sudoeste 0 -- -- 35
2019-08-09 10:00:00 15 23 Sudoeste 57 Sudoeste 0 -- -- 32
2019-08-09 09:00:00 15.4 21 Sudoeste 60 Sudoeste 0 -- -- 37
2019-08-09 08:00:00 14.9 23 Sudoeste 51 Sudoeste 0.2 -- -- 69
2019-08-09 07:00:00 15.3 14 Sudoeste 49 Sudoeste 0.7 -- -- 80
2019-08-09 06:00:00 15.1 15 Sur 47 Sur 1 -- -- 86
2019-08-09 05:00:00 15 22 Sur 45 Sur 0.5 -- -- 86
2019-08-09 04:00:00 15 25 Sur 57 Sur 0.3 -- -- 86
2019-08-09 03:00:00 15.2 25 Sur 47 Sur 0.1 -- -- 82
2019-08-09 02:00:00 15.6 22 Sur 45 Sur 0 -- -- 76
2019-08-09 01:00:00 16 24 Sur 49 Sur 0 -- -- 72
2019-08-09 00:00:00 16.2 21 Sur 51 Sur 0 -- -- 68
2019-08-08 23:00:00 16.2 23 Sur 44 Sudoeste 0 -- -- 67
2019-08-08 22:00:00 16.6 19 Sur 59 Sur 0 -- -- 71
2019-08-08 21:00:00 17.3 18 Sur 42 Sur 0.2 -- -- 71
2019-08-08 20:00:00 17.8 26 Sur 47 Sudoeste 0 -- -- 69
2019-08-08 19:00:00 17.4 18 Sur 46 Sur 0.3 -- -- 74
2019-08-08 18:00:00 17 19 Sur 44 Sur 1.2 -- -- 80
2019-08-08 17:00:00 16.8 19 Sur 53 Sur 0.4 -- -- 81
2019-08-08 16:00:00 15.9 17 Sudeste 44 Sudeste 0 -- -- 84
2019-08-08 15:00:00 16.2 20 Sur 39 Sur 0 -- -- 81
2019-08-08 14:00:00 15.6 13 Sur 35 Sudeste 0 -- -- 86
2019-08-08 13:00:00 14.2 18 Sudeste 47 Sur 0.1 -- -- 88
2019-08-08 12:00:00 14.1 23 Sur 54 Sur 0 -- -- 87
2019-08-08 11:00:00 14.2 32 Sur 47 Sur 0.1 -- -- 86
2019-08-08 10:00:00 13.7 25 Sur 46 Sur 0 -- -- 87
2019-08-08 09:00:00 13.3 18 Sur 37 Sur 0 -- -- 90
2019-08-08 08:00:00 13.1 18 Sudeste 32 Sudeste 0.1 -- -- 89
2019-08-08 07:00:00 13.3 16 Sudeste 32 Sudeste 0.5 -- -- 87
2019-08-08 06:00:00 13.4 17 Sudeste 29 Sur 0.1 -- -- 86
2019-08-08 05:00:00 13.5 20 Sur 33 Sur 0 -- -- 86
2019-08-08 04:00:00 13.2 14 Sudeste 28 Sudeste 0.4 -- -- 87
2019-08-08 03:00:00 13.2 13 Sudeste 34 Sur 0.1 -- -- 87
2019-08-08 02:00:00 13.6 23 Sur 42 Sur 0 -- -- 84
2019-08-08 01:00:00 13.7 19 Sur 30 Sur 0 -- -- 83
2019-08-08 00:00:00 13.9 16 Sur 35 Sur 0 -- -- 83
2019-08-07 23:00:00 13.6 13 Sudeste 32 Sur 0 -- -- 84
2019-08-07 22:00:00 14.1 9 Sudeste 27 Sur 0 -- -- 78
2019-08-07 21:00:00 14.3 19 Sur 28 Sur 0 -- -- 75
2019-08-07 20:00:00 14.7 13 Sur 26 Sur 0 -- -- 71
2019-08-07 19:00:00 15.3 14 Sur 31 Sudeste 0 -- -- 61
2019-08-07 18:00:00 16 12 Sur 23 Sur 0 -- -- 57
2019-08-07 17:00:00 16.7 14 Sur 26 Sur 0 -- -- 54
2019-08-07 16:00:00 17.1 12 Sur 28 Sur 0 -- -- 52
2019-08-07 15:00:00 17.6 12 Sur 36 Sur 0 -- -- 50
2019-08-07 14:00:00 18.2 13 Sur 32 Sur 0 -- -- 48
2019-08-07 13:00:00 16.8 17 Sur 34 Sur 0 -- -- 49
2019-08-07 12:00:00 17.4 11 Sur 24 Sudeste 0 -- -- 47
2019-08-07 11:00:00 16 13 Este 23 Este 0.1 -- -- 55
2019-08-07 10:00:00 13.8 12 Sur 17 Sur 0 -- -- 63
2019-08-07 09:00:00 12.8 0 Calma 8 Oeste 0 -- -- 71
2019-08-07 08:00:00 11.2 6 Sudoeste 12 Sur 0 -- -- 77
2019-08-07 07:00:00 9.6 8 Sudoeste 11 Sur 0 -- -- 75
2019-08-07 06:00:00 9.9 5 Sur 11 Sur 0 -- -- 75
2019-08-07 05:00:00 10.8 10 Sudoeste 13 Sudoeste 0 -- -- 71
2019-08-07 04:00:00 11.4 8 Sur 10 Sudoeste 0 -- -- 73
2019-08-07 03:00:00 12.2 4 Sur 7 Sudoeste 0 -- -- 79
2019-08-07 02:00:00 12.9 0 Calma 12 Sudoeste 0 -- -- 74
2019-08-07 01:00:00 13.1 3 Sudoeste 10 Sudeste 0 -- -- 78
2019-08-07 00:00:00 12.9 3 Sur 10 Sudoeste 0 -- -- 85
2019-08-06 23:00:00 12.7 7 Sudoeste 13 Oeste 0 -- -- 87
2019-08-06 22:00:00 13 4 Oeste 12 Sudoeste 0.9 -- -- 91
2019-08-06 21:00:00 12.6 0 Calma 14 Noroeste 2.4 -- -- 90
2019-08-06 20:00:00 12.8 4 Noroeste 22 Noroeste 0.8 -- -- 90
2019-08-06 19:00:00 13.6 7 Noroeste 18 Noroeste 0 -- -- 90
2019-08-06 18:00:00 14.8 9 Noroeste 15 Noroeste 0 -- -- 89
2019-08-06 17:00:00 15.6 6 Noroeste 10 Noroeste 0 -- -- 85
2019-08-06 16:00:00 16.2 5 Norte 13 Noroeste 0 -- -- 77
2019-08-06 15:00:00 17.9 6 Noroeste 18 Noroeste 0 -- -- 69
2019-08-06 14:00:00 19.1 6 Noroeste 19 Sudeste 0 -- -- 66
2019-08-06 13:00:00 18.6 11 Sudeste 21 Sudeste 0 -- -- 52
2019-08-06 12:00:00 17.5 9 Sur 26 Sur 0 -- -- 59
2019-08-06 11:00:00 15.9 20 Sur 31 Sur 0 -- -- 62
2019-08-06 10:00:00 15.6 13 Sur 23 Sur 0 -- -- 68
2019-08-06 09:00:00 14.4 16 Sur 24 Sur 0 -- -- 71
2019-08-06 08:00:00 13.9 13 Sur 22 Sur 0 -- -- 72
2019-08-06 07:00:00 13.9 17 Sur 22 Sur 0 -- -- 72
2019-08-06 06:00:00 14.7 13 Sur 20 Sur 0 -- -- 61
2019-08-06 05:00:00 12.8 5 Sudoeste 21 Sur 0 -- -- 67
2019-08-06 04:00:00 11.8 6 Sur 14 Sudoeste 0 -- -- 77
2019-08-06 03:00:00 12.1 7 Sur 11 Sur 0 -- -- 82
2019-08-06 02:00:00 12.2 5 Sur 7 Sur 0 -- -- 89
2019-08-06 01:00:00 13.3 2 Sudoeste 4 Sudoeste 0 -- -- 90
2019-08-06 00:00:00 13.3 0 Calma 6 Sudeste 0 -- -- 90
2019-08-05 23:00:00 13.2 0 Calma 7 Noroeste 0 -- -- 90
2019-08-05 22:00:00 13.7 2 Noroeste 9 Noroeste 0 -- -- 90
2019-08-05 21:00:00 14.2 5 Noroeste 10 Noroeste 0 -- -- 88
2019-08-05 20:00:00 14.7 6 Noroeste 12 Noroeste 0 -- -- 85
2019-08-05 19:00:00 17.1 5 Noroeste 11 Noroeste 0 -- -- 72
2019-08-05 18:00:00 16.1 6 Noroeste 18 Oeste 0 -- -- 73
2019-08-05 17:00:00 18.5 7 Noroeste 17 Noroeste 0 -- -- 65
2019-08-05 16:00:00 17.9 9 Noroeste 19 Noroeste 0 -- -- 65
2019-08-05 15:00:00 17.6 5 Noroeste 16 Noroeste 0 -- -- 64
2019-08-05 14:00:00 17.5 4 Noroeste 13 Noroeste 0 -- -- 67
2019-08-05 13:00:00 16.2 6 Noroeste 12 Noroeste 0 -- -- 67
2019-08-05 12:00:00 17.5 4 Norte 17 Sudeste 0 -- -- 58
2019-08-05 11:00:00 17.8 6 Sudeste 17 Sur 0 -- -- 59
2019-08-05 10:00:00 15.9 9 Sur 18 Sur 0 -- -- 68
2019-08-05 09:00:00 15.2 0 Calma 12 Sur 0 -- -- 70
2019-08-05 08:00:00 13.2 11 Sur 13 Sur 0 -- -- 78
2019-08-05 07:00:00 11.5 8 Sudoeste 14 Sudoeste 0 -- -- 79
2019-08-05 06:00:00 11.2 10 Sudoeste 14 Sudoeste 0 -- -- 75
2019-08-05 05:00:00 12.2 9 Sur 18 Sur 0 -- -- 71
2019-08-05 04:00:00 11.6 13 Sudoeste 17 Sudoeste 0 -- -- 71
2019-08-05 03:00:00 11 10 Sur 13 Sur 0 -- -- 82
2019-08-05 02:00:00 11 8 Sudoeste 10 Sudoeste 0 -- -- 90
2019-08-05 01:00:00 12.3 2 Sudeste 6 Sudeste 0 -- -- 90
2019-08-05 00:00:00 12.7 0 Calma 7 Noroeste 0.2 -- -- 90
2019-08-04 23:00:00 12.9 4 Noroeste 8 Noroeste 0.3 -- -- 90
2019-08-04 22:00:00 13 4 Noroeste 8 Noroeste 0.5 -- -- 90
2019-08-04 21:00:00 13.2 4 Noroeste 12 Noroeste 0.3 -- -- 90
2019-08-04 20:00:00 13.4 5 Noroeste 13 Oeste 0 -- -- 90
2019-08-04 19:00:00 14 5 Noroeste 10 Noroeste 0 -- -- 90
2019-08-04 18:00:00 14 3 Noroeste 12 Noroeste 0 -- -- 88
2019-08-04 17:00:00 15.1 4 Noroeste 12 Sur 0 -- -- 85
2019-08-04 16:00:00 14.8 2 Sur 9 Oeste 0 -- -- 89
2019-08-04 15:00:00 13.9 4 Noroeste 10 Noroeste 0 -- -- 89
2019-08-04 14:00:00 14 3 Noroeste 12 Noroeste 0 -- -- 87
2019-08-04 13:00:00 15 4 Noroeste 14 Noroeste 0 -- -- 80
2019-08-04 12:00:00 19.5 6 Este 23 Este 0 -- -- 55
2019-08-04 11:00:00 18.7 5 Sudeste 16 Sudoeste 0 -- -- 57
2019-08-04 10:00:00 -- -- -- -- -- -- -- -- --
2019-08-04 09:00:00 11.9 0 Calma 5 Norte 0 -- -- 90
2019-08-04 08:00:00 10.7 0 Calma 8 Sur 0 -- -- 90
2019-08-04 07:00:00 11 3 Sur 6 Sudoeste 0 -- -- 89
2019-08-04 06:00:00 10.5 0 Calma 8 Sudoeste 0 -- -- 84
2019-08-04 05:00:00 12.3 8 Sur 10 Sur 0 -- -- 77
2019-08-04 04:00:00 12.5 3 Sur 10 Sur 0 -- -- 78
2019-08-04 03:00:00 11.8 2 Sudoeste 6 Sur 0 -- -- 88
2019-08-04 02:00:00 13.4 2 Sur 6 Noroeste 0 -- -- 88
2019-08-04 01:00:00 13.9 3 Oeste 9 Oeste 0 -- -- 88
2019-08-04 00:00:00 14 3 Noroeste 7 Oeste 0 -- -- 87
2019-08-03 23:00:00 14.3 0 Calma 6 Oeste 0 -- -- 86
2019-08-03 22:00:00 14.4 0 Calma 6 Noroeste 0 -- -- 85
2019-08-03 21:00:00 14.8 3 Noroeste 13 Noroeste 0 -- -- 83
2019-08-03 20:00:00 16 7 Noroeste 15 Noroeste 0 -- -- 73
2019-08-03 19:00:00 16.5 8 Noroeste 16 Noroeste 0 -- -- 69
2019-08-03 18:00:00 18 7 Noroeste 16 Noroeste 0 -- -- 67
2019-08-03 17:00:00 18.5 10 Noroeste 18 Noroeste 0 -- -- 66
2019-08-03 16:00:00 19.3 8 Noroeste 16 Noroeste 0 -- -- 65
2019-08-03 15:00:00 19.5 6 Noroeste 12 Noroeste 0 -- -- 64
2019-08-03 14:00:00 20 6 Noroeste 16 Noroeste 0 -- -- 60
2019-08-03 13:00:00 22.2 6 Sudoeste 23 Este 0 -- -- 38
2019-08-03 12:00:00 21.2 12 Sudeste 28 Sudeste 0 -- -- 42
2019-08-03 11:00:00 19.8 14 Sudeste 28 Sur 0 -- -- 43
2019-08-03 10:00:00 18.6 17 Sur 28 Sur 0 -- -- 46
2019-08-03 09:00:00 17.5 12 Sur 19 Sur 0 -- -- 48
2019-08-03 08:00:00 16.2 12 Sur 19 Sur 0 -- -- 51
2019-08-03 07:00:00 15.7 13 Sur 22 Sur 0 -- -- 55
2019-08-03 06:00:00 15.9 12 Sur 24 Sur 0 -- -- 55
2019-08-03 05:00:00 15.9 15 Sur 22 Sudeste 0 -- -- 52
2019-08-03 04:00:00 15.4 10 Sur 16 Sur 0 -- -- 55
2019-08-03 03:00:00 14.2 9 Sudoeste 15 Sudoeste 0 -- -- 57
2019-08-03 02:00:00 12.7 11 Sur 14 Sur 0 -- -- 53
2019-08-03 01:00:00 12.4 9 Sur 12 Sur 0 -- -- 55
2019-08-03 00:00:00 13.7 6 Sudoeste 10 Sudoeste 0 -- -- 50
2019-08-02 23:00:00 13.4 5 Sudoeste 10 Sudoeste 0 -- -- 56
2019-08-02 22:00:00 14 5 Oeste 10 Oeste 0 -- -- 66
2019-08-02 21:00:00 16.5 5 Noroeste 10 Noroeste 0 -- -- 73
2019-08-02 20:00:00 18.1 5 Noroeste 16 Noroeste 0 -- -- 68
2019-08-02 19:00:00 18.8 5 Noroeste 16 Noroeste 0 -- -- 64
2019-08-02 18:00:00 18.6 8 Noroeste 16 Noroeste 0 -- -- 65
2019-08-02 17:00:00 19.2 7 Noroeste 17 Oeste 0 -- -- 67
2019-08-02 16:00:00 19 8 Noroeste 16 Noroeste 0 -- -- 65
2019-08-02 15:00:00 18.7 6 Noroeste 14 Noroeste 0 -- -- 66
2019-08-02 14:00:00 17.9 6 Noroeste 13 Noroeste 0 -- -- 66
2019-08-02 13:00:00 19.1 4 Norte 12 Oeste 0 -- -- 55
2019-08-02 12:00:00 20.2 4 Norte 9 Noroeste 0 -- -- 42
2019-08-02 11:00:00 -- -- -- -- -- -- -- -- --
2019-08-02 10:00:00 18.3 3 Norte 7 Norte 0 -- -- 47
2019-08-02 09:00:00 16.7 0 Calma 16 Sur 0 -- -- 50
2019-08-02 08:00:00 14.3 14 Sur 19 Sur 0 -- -- 48
2019-08-02 07:00:00 13.7 16 Sur 19 Sur 0 -- -- 50
2019-08-02 06:00:00 13.8 12 Sur 17 Sur 0 -- -- 52
2019-08-02 05:00:00 13 11 Sudoeste 15 Sudoeste 0 -- -- 55
2019-08-02 04:00:00 11.4 10 Sur 13 Sur 0 -- -- 52
2019-08-02 03:00:00 11.2 9 Sudoeste 13 Sudoeste 0 -- -- 54
2019-08-02 02:00:00 10.1 2 Sudoeste 7 Sur 0 -- -- 88
2019-08-02 01:00:00 11.3 0 Calma 8 Noroeste 0 -- -- 90
2019-08-02 00:00:00 11.5 3 Noroeste 14 Noroeste 0 -- -- 90
2019-08-01 23:00:00 11.9 5 Norte 15 Noroeste 0 -- -- 90
2019-08-01 22:00:00 12.2 8 Noroeste 15 Noroeste 0 -- -- 89
2019-08-01 21:00:00 12.6 6 Noroeste 14 Noroeste 0 -- -- 87
2019-08-01 20:00:00 13.1 6 Noroeste 15 Noroeste 0 -- -- 82
2019-08-01 19:00:00 14.1 8 Noroeste 15 Noroeste 0 -- -- 75
2019-08-01 18:00:00 15.1 8 Noroeste 15 Noroeste 0 -- -- 70
2019-08-01 17:00:00 14 3 Noroeste 15 Oeste 0 -- -- 74
2019-08-01 16:00:00 13.6 5 Noroeste 15 Noroeste 0 -- -- 76
2019-08-01 15:00:00 12.9 4 Noroeste 12 Noroeste 0 -- -- 81
2019-08-01 14:00:00 11.9 0 Calma 10 Noroeste 0 -- -- 88
2019-08-01 13:00:00 10.8 3 Noroeste 9 Oeste 0 -- -- 90
2019-08-01 12:00:00 10.4 0 Calma 8 Noroeste 0 -- -- 91
2019-08-01 11:00:00 9.7 3 Noroeste 7 Noroeste 0 -- -- 91
2019-08-01 10:00:00 9.6 2 Noroeste 7 Noroeste 0 -- -- 91
2019-08-01 09:00:00 10 2 Norte 5 Norte 0 -- -- 91
2019-08-01 08:00:00 8.1 0 Calma 9 Sudoeste 0 -- -- 91
2019-08-01 07:00:00 8 5 Sur 8 Sudoeste 0 -- -- 90
2019-08-01 06:00:00 7.7 0 Calma 7 Sur 0 -- -- 90
2019-08-01 05:00:00 7.9 0 Calma 11 Oeste 0 -- -- 90
2019-08-01 04:00:00 8.4 3 Noroeste 8 Noroeste 0 -- -- 90
2019-08-01 03:00:00 8.7 4 Noroeste 9 Noroeste 0 -- -- 90
2019-08-01 02:00:00 9.5 5 Sur 8 Sur 0 -- -- 90
2019-08-01 01:00:00 9.9 2 Sur 6 Sudoeste 0 -- -- 90
2019-08-01 00:00:00 10.2 3 Sudoeste 8 Noroeste 0 -- -- 90
2019-07-31 23:00:00 10.4 3 Norte 6 Norte 0 -- -- 90
2019-07-31 22:00:00 10.5 3 Noroeste 9 Noroeste 0 -- -- 89
2019-07-31 21:00:00 11 6 Noroeste 9 Noroeste 0 -- -- 89
2019-07-31 20:00:00 11.4 5 Noroeste 13 Noroeste 0 -- -- 88
2019-07-31 19:00:00 11.7 4 Noroeste 13 Noroeste 0 -- -- 85
2019-07-31 18:00:00 12.2 6 Noroeste 11 Noroeste 0 -- -- 81
2019-07-31 17:00:00 12.6 5 Noroeste 13 Norte 0 -- -- 76
2019-07-31 16:00:00 14.2 6 Noroeste 14 Noroeste 0 -- -- 71
2019-07-31 15:00:00 13.8 6 Noroeste 14 Noroeste 0 -- -- 69
2019-07-31 14:00:00 13.8 5 Noroeste 13 Oeste 0 -- -- 72
2019-07-31 13:00:00 12.9 4 Noroeste 11 Noroeste 0 -- -- 75
2019-07-31 12:00:00 12 6 Noroeste 10 Noroeste 0 -- -- 73
2019-07-31 11:00:00 12.5 4 Norte 11 Este 0 -- -- 65
2019-07-31 10:00:00 12.6 7 Sudeste 16 Sudeste 0 -- -- 61
2019-07-31 09:00:00 11.2 3 Este 18 Sur 0 -- -- 69
2019-07-31 08:00:00 9.3 9 Sur 16 Sur 0 -- -- 74
2019-07-31 07:00:00 7.6 5 Sudoeste 10 Sudoeste 0 -- -- 78
2019-07-31 06:00:00 8.2 3 Sudoeste 15 Sur 0 -- -- 77
2019-07-31 05:00:00 7.6 7 Sudoeste 10 Sudoeste 0 -- -- 84
2019-07-31 04:00:00 8.5 8 Sur 15 Sur 0 -- -- 89
2019-07-31 03:00:00 6.8 0 Calma 8 Nordeste 0 -- -- 90
2019-07-31 02:00:00 7.3 0 Calma 6 Oeste 0 -- -- 90
2019-07-31 01:00:00 7.4 4 Noroeste 8 Oeste 0.2 -- -- 90
2019-07-31 00:00:00 7.4 4 Noroeste 8 Oeste 0.2 -- -- 90
2019-07-30 23:00:00 7.5 4 Noroeste 9 Oeste 0 -- -- 90
2019-07-30 22:00:00 7.6 5 Noroeste 11 Noroeste 0 -- -- 90
2019-07-30 21:00:00 8.1 7 Noroeste 15 Noroeste 0 -- -- 90
2019-07-30 20:00:00 8.7 9 Noroeste 22 Noroeste 0 -- -- 89
2019-07-30 19:00:00 9.8 9 Noroeste 19 Noroeste 0 -- -- 79
2019-07-30 18:00:00 11.4 13 Noroeste 24 Noroeste 0 -- -- 64
2019-07-30 17:00:00 12.7 8 Noroeste 23 Noroeste 0 -- -- 60
2019-07-30 16:00:00 12.3 10 Noroeste 20 Noroeste 0 -- -- 59
2019-07-30 15:00:00 11.9 9 Noroeste 18 Norte 0 -- -- 59
2019-07-30 14:00:00 11.6 5 Noroeste 17 Noroeste 0 -- -- 59
2019-07-30 13:00:00 10.9 6 Norte 15 Noroeste 0 -- -- 60
2019-07-30 12:00:00 8.9 6 Norte 17 Noroeste 0 -- -- 64
2019-07-30 11:00:00 8.8 10 Noroeste 26 Noroeste 0 -- -- 63
2019-07-30 10:00:00 7.3 9 Noroeste 18 Noroeste 0 -- -- 70
2019-07-30 09:00:00 6 6 Noroeste 24 Noroeste 0 -- -- 76
2019-07-30 08:00:00 5.9 7 Noroeste 21 Noroeste 0 -- -- 77
2019-07-30 07:00:00 5.7 11 Noroeste 25 Noroeste 0 -- -- 77
2019-07-30 06:00:00 5.4 8 Noroeste 23 Noroeste 0 -- -- 81
2019-07-30 05:00:00 5.4 3 Noroeste 21 Noroeste 0 -- -- 80
2019-07-30 04:00:00 6 8 Noroeste 23 Norte 0 -- -- 82
2019-07-30 03:00:00 6.7 6 Noroeste 17 Oeste 0 -- -- 86
2019-07-30 02:00:00 7.5 4 Noroeste 14 Noroeste 0 -- -- 86
2019-07-30 01:00:00 7.9 4 Noroeste 18 Noroeste 0 -- -- 86
2019-07-30 00:00:00 8.5 5 Noroeste 17 Noroeste 0 -- -- 87
2019-07-29 23:00:00 9.1 6 Norte 15 Oeste 0 -- -- 87
2019-07-29 22:00:00 9.7 6 Noroeste 15 Noroeste 0 -- -- 86
2019-07-29 21:00:00 10.7 6 Noroeste 19 Noroeste 0 -- -- 81
2019-07-29 20:00:00 12.1 11 Noroeste 27 Noroeste 0 -- -- 66
2019-07-29 19:00:00 13.6 9 Noroeste 20 Noroeste 0 -- -- 55
2019-07-29 18:00:00 14.5 9 Noroeste 25 Oeste 0 -- -- 55
2019-07-29 17:00:00 16.7 10 Noroeste 27 Noroeste 0 -- -- 53
2019-07-29 16:00:00 16.3 11 Noroeste 23 Sudoeste 0 -- -- 38
2019-07-29 15:00:00 16.6 8 Oeste 25 Oeste 0 -- -- 38
2019-07-29 14:00:00 16.3 4 Norte 23 Sur 0 -- -- 49
2019-07-29 13:00:00 15.5 10 Sur 24 Sur 0 -- -- 54
2019-07-29 12:00:00 14.8 12 Sur 21 Sur 0 -- -- 59
2019-07-29 11:00:00 14.2 10 Sur 23 Sur 0 -- -- 57
2019-07-29 10:00:00 13.9 8 Sur 20 Sudoeste 0 -- -- 64
2019-07-29 09:00:00 13.5 3 Este 13 Sur 0 -- -- 68
2019-07-29 08:00:00 11.8 3 Sur 11 Sur 0 -- -- 72
2019-07-29 07:00:00 8.8 8 Sur 11 Sudoeste 0 -- -- 66
2019-07-29 06:00:00 14.1 11 Sudoeste 36 Sur 0 -- -- 47
2019-07-29 05:00:00 11.9 8 Sur 29 Sudoeste 0 -- -- 54
2019-07-29 04:00:00 13.3 10 Sudoeste 21 Sudoeste 0 -- -- 57
2019-07-29 03:00:00 11.5 12 Sur 16 Sudoeste 0 -- -- 67
2019-07-29 02:00:00 12.7 7 Sur 19 Sudoeste 0 -- -- 64
2019-07-29 01:00:00 11.5 8 Sur 14 Sur 0 -- -- 62
2019-07-29 00:00:00 12.6 5 Sur 18 Sur 0 -- -- 53
2019-07-28 23:00:00 15.1 11 Sur 20 Sur 0 -- -- 45
2019-07-28 22:00:00 15.8 12 Sur 23 Sur 0 -- -- 42
2019-07-28 21:00:00 16.6 11 Sudoeste 30 Sur 0 -- -- 37
2019-07-28 20:00:00 17.8 13 Sudoeste 25 Sudoeste 0 -- -- 31
2019-07-28 19:00:00 16.5 6 Noroeste 14 Noroeste 0 -- -- 66
2019-07-28 18:00:00 16.5 5 Norte 13 Noroeste 0 -- -- 65
2019-07-28 17:00:00 16.5 6 Noroeste 14 Noroeste 0 -- -- 65
2019-07-28 16:00:00 16.4 7 Noroeste 22 Sudoeste 0 -- -- 55
2019-07-28 15:00:00 16.3 2 Sur 13 Sur 0 -- -- 55
2019-07-28 14:00:00 14.8 6 Noroeste 21 Este 0 -- -- 56
2019-07-28 13:00:00 14.5 9 Sudeste 22 Sudeste 0 -- -- 54
2019-07-28 12:00:00 13.4 8 Sur 21 Sudeste 0 -- -- 60
2019-07-28 11:00:00 11.3 13 Sur 25 Sudeste 0 -- -- 66
2019-07-28 10:00:00 9.6 16 Sur 25 Sur 0 -- -- 73
2019-07-28 09:00:00 8.8 13 Sur 19 Sur 0 -- -- 78
2019-07-28 08:00:00 7.3 13 Sur 19 Sur 0 -- -- 86
2019-07-28 07:00:00 5.3 10 Sur 12 Sur 0 -- -- 91
2019-07-28 06:00:00 5 8 Sudoeste 11 Sur 0 -- -- 91
2019-07-28 05:00:00 5.1 5 Sur 8 Sudoeste 0 -- -- 91
2019-07-28 04:00:00 6.9 0 Calma 4 Sur 0 -- -- 91
2019-07-28 03:00:00 7.1 0 Calma 10 Noroeste 0 -- -- 91
2019-07-28 02:00:00 7.1 5 Norte 15 Noroeste 0.1 -- -- 91
2019-07-28 01:00:00 6.9 6 Noroeste 21 Noroeste 0.1 -- -- 91
2019-07-28 00:00:00 7.2 11 Noroeste 27 Noroeste 0 -- -- 91
2019-07-27 23:00:00 7.4 13 Noroeste 33 Noroeste 1.3 -- -- 91
2019-07-26 12:00:00 8.6 6 Noroeste 15 Noroeste 0 -- -- 91
2019-07-26 11:00:00 8.2 6 Noroeste 18 Noroeste 0.8 -- -- 91
2019-07-26 10:00:00 8.3 0 Calma 17 Noroeste 1.1 -- -- 91
2019-07-26 09:00:00 8.8 4 Noroeste 14 Noroeste 1.1 -- -- 91
2019-07-26 08:00:00 9.3 6 Noroeste 14 Noroeste 1.2 -- -- 91
2019-07-26 07:00:00 10 3 Noroeste 21 Noroeste 1.7 -- -- 90
2019-07-26 06:00:00 10.7 5 Noroeste 12 Noroeste 1.2 -- -- 90
2019-07-26 05:00:00 11.1 3 Noroeste 13 Noroeste 1.1 -- -- 90
2019-07-26 04:00:00 11.4 5 Noroeste 11 Noroeste 1.1 -- -- 90
2019-07-26 03:00:00 11.5 4 Noroeste 9 Noroeste 0.7 -- -- 90
2019-07-26 02:00:00 11.5 5 Noroeste 11 Noroeste 0.8 -- -- 90
2019-07-26 01:00:00 11.8 6 Noroeste 11 Noroeste 0.5 -- -- 90
2019-07-26 00:00:00 12.6 3 Norte 7 Noroeste 0.1 -- -- 89
2019-07-25 23:00:00 13.1 3 Noroeste 15 Sur 0 -- -- 84
2019-07-25 22:00:00 15.4 7 Sudeste 31 Este 0.3 -- -- 64
2019-07-25 21:00:00 14.9 7 Sur 22 Sur 0.3 -- -- 68
2019-07-25 20:00:00 15.3 14 Sudoeste 28 Sur 0.4 -- -- 69
2019-07-25 19:00:00 13.8 3 Noroeste 13 Oeste 0 -- -- 88
2019-07-25 18:00:00 14.7 7 Noroeste 14 Oeste 0 -- -- 86
2019-07-25 17:00:00 17.4 8 Noroeste 41 Sur 0 -- -- 74
2019-07-25 16:00:00 22.2 18 Sur 35 Sur 0 -- -- 42
2019-07-25 15:00:00 21.9 15 Sur 43 Sudeste 0 -- -- 42
2019-07-25 14:00:00 21.4 18 Sur 33 Sur 0 -- -- 40
2019-07-25 13:00:00 20.3 17 Sudeste 41 Sur 0 -- -- 44
2019-07-25 12:00:00 19.5 21 Sudeste 37 Sudeste 0 -- -- 47
2019-07-25 11:00:00 19.1 16 Sudeste 45 Sur 0 -- -- 47
2019-07-25 10:00:00 18.2 15 Sur 35 Sudeste 0 -- -- 49
2019-07-25 09:00:00 18 12 Sudeste 34 Sudeste 0 -- -- 45
2019-07-25 08:00:00 17 16 Sur 31 Sur 0 -- -- 46
2019-07-25 07:00:00 18.6 15 Sur 36 Sur 0 -- -- 41
2019-07-25 06:00:00 19.3 15 Sur 29 Sur 0 -- -- 42
2019-07-25 05:00:00 18.8 8 Sur 19 Sudoeste 0 -- -- 45
2019-07-25 04:00:00 18.6 9 Sur 21 Sudeste 0 -- -- 47
2019-07-25 03:00:00 16.9 9 Sur 19 Sur 0 -- -- 56
2019-07-25 02:00:00 16.1 10 Sur 15 Sur 0 -- -- 59
2019-07-25 01:00:00 17 10 Sur 15 Sur 0 -- -- 54
2019-07-25 00:00:00 19.3 8 Sudoeste 22 Sudoeste 0 -- -- 45
2019-07-24 23:00:00 18.8 9 Sudoeste 14 Sudoeste 0 -- -- 44
2019-07-24 22:00:00 20.2 5 Sudoeste 25 Sur 0 -- -- 39
2019-07-24 21:00:00 23 9 Sudoeste 35 Sur 0 -- -- 34
2019-07-24 20:00:00 23.8 20 Sur 41 Sudoeste 0 -- -- 36
2019-07-24 19:00:00 24.6 9 Sur 41 Sur 0 -- -- 36
2019-07-24 18:00:00 24 15 Sur 40 Sur 0 -- -- 40
2019-07-24 17:00:00 22.9 19 Sur 37 Sur 0 -- -- 40
2019-07-24 16:00:00 23.9 17 Sur 40 Sudeste 0 -- -- 34
2019-07-24 15:00:00 23.4 18 Sur 42 Sur 0 -- -- 38
2019-07-24 14:00:00 22.3 16 Sur 42 Sur 0 -- -- 48
2019-07-24 13:00:00 21.5 18 Sur 35 Sudoeste 0 -- -- 50
2019-07-24 12:00:00 21.6 12 Sudeste 28 Sudeste 0 -- -- 54
2019-07-24 11:00:00 19.7 10 Sudeste 21 Sudeste 0 -- -- 56
2019-07-24 10:00:00 18.2 12 Sudeste 26 Sudeste 0 -- -- 57
2019-07-24 09:00:00 17.3 15 Sudeste 25 Sudeste 0 -- -- 58
2019-07-24 08:00:00 15.7 16 Sur 30 Sur 0 -- -- 62
2019-07-24 07:00:00 15.5 21 Sur 33 Sur 0 -- -- 64
2019-07-24 06:00:00 15.7 19 Sur 32 Sur 0 -- -- 65
2019-07-24 05:00:00 15.7 18 Sur 29 Sur 0 -- -- 66
2019-07-24 04:00:00 16 20 Sur 32 Sur 0 -- -- 64
2019-07-24 03:00:00 16.5 23 Sur 35 Sur 0 -- -- 61
2019-07-24 02:00:00 17.4 23 Sur 38 Sur 0 -- -- 58
2019-07-24 01:00:00 15.4 10 Sur 22 Sur 0 -- -- 64
2019-07-24 00:00:00 14.4 7 Sudoeste 12 Sudoeste 0 -- -- 69
2019-07-23 23:00:00 16.6 10 Sudoeste 28 Sur 0.3 -- -- 59
2019-07-23 22:00:00 15.8 7 Sudoeste 23 Sur 1.7 -- -- 71
2019-07-23 21:00:00 17.9 9 Sur 37 Sur 0.6 -- -- 56
2019-07-23 20:00:00 18.4 6 Sudoeste 28 Sur 0.6 -- -- 55
2019-07-23 19:00:00 19.2 10 Sur 20 Sur 1.5 -- -- 47
2019-07-23 18:00:00 22.9 6 Oeste 22 Sur 0 -- -- 43
2019-07-23 17:00:00 24.5 8 Sudeste 26 Sudeste 0 -- -- 36
2019-07-23 16:00:00 24 14 Sur 28 Sudoeste 0 -- -- 37
2019-07-23 15:00:00 23.8 14 Sur 30 Sur 0 -- -- 40
2019-07-23 14:00:00 23.1 14 Sur 36 Sur 0 -- -- 38
2019-07-23 13:00:00 23 13 Sudeste 33 Sudeste 0 -- -- 42
2019-07-23 12:00:00 20.3 15 Sur 32 Sudeste 0 -- -- 48
2019-07-23 11:00:00 18.8 22 Sudeste 42 Sudeste 0 -- -- 49
2019-07-23 10:00:00 18.6 19 Sudeste 46 Sur 0 -- -- 48
2019-07-23 09:00:00 18 13 Sudeste 44 Sur 0 -- -- 47
2019-07-23 08:00:00 18.6 19 Sur 33 Sur 0 -- -- 40
2019-07-23 07:00:00 19.7 20 Sur 32 Sur 0 -- -- 36
2019-07-23 06:00:00 19.4 21 Sur 31 Sur 0 -- -- 37
2019-07-23 05:00:00 20.2 21 Sur 28 Sur 0 -- -- 35
2019-07-23 04:00:00 20.1 19 Sur 31 Sur 0 -- -- 38
2019-07-23 03:00:00 18.7 24 Sur 35 Sur 0 -- -- 43
2019-07-23 02:00:00 18.7 23 Sur 34 Sur 0 -- -- 43
2019-07-23 01:00:00 18.6 24 Sur 40 Sur 0.1 -- -- 45
2019-07-23 00:00:00 18.1 22 Sur 48 Sudoeste 0 -- -- 48
2019-07-22 23:00:00 17.3 25 Sudeste 60 Sudeste 0 -- -- 51
2019-07-22 22:00:00 18.3 26 Sudeste 78 Sur 0 -- -- 46
2019-07-22 21:00:00 20.4 9 Sur 12 Sudoeste 0 -- -- 56
2019-07-22 20:00:00 22.4 4 Sur 12 Sudoeste 0 -- -- 63
2019-07-22 19:00:00 21.3 8 Noroeste 24 Sudeste 0 -- -- 69
2019-07-22 18:00:00 26.8 10 Este 27 Sudeste 0 -- -- 28
2019-07-22 17:00:00 26.7 9 Sur 27 Sur 0 -- -- 29
2019-07-22 16:00:00 26.4 9 Sudeste 22 Este 0 -- -- 32
2019-07-22 15:00:00 25.9 11 Sudeste 25 Este 0 -- -- 37
2019-07-22 14:00:00 25.2 12 Sudeste -- -- -- -- -- 38
2019-07-22 13:00:00 -- -- -- -- -- -- -- -- --
2019-07-22 12:00:00 -- -- -- -- -- -- -- -- --
2019-07-22 11:00:00 -- -- -- -- -- -- -- -- --
2019-07-22 10:00:00 -- -- -- -- -- -- -- -- --
2019-07-22 09:00:00 -- -- -- -- -- -- -- -- --
2019-07-22 08:00:00 -- -- -- -- -- -- -- -- --
2019-07-22 07:00:00 -- -- -- -- -- -- -- -- --
2019-07-22 06:00:00 -- -- -- -- -- -- -- -- --
2019-07-22 05:00:00 -- -- -- -- -- -- -- -- --
2019-07-22 04:00:00 -- -- -- -- -- -- -- -- --
2019-07-22 03:00:00 -- -- -- -- -- -- -- -- --
2019-07-22 02:00:00 -- -- -- -- -- -- -- -- --
2019-07-22 01:00:00 -- -- -- -- -- -- -- -- --
2019-07-22 00:00:00 -- -- -- -- -- -- -- -- --
2019-07-21 23:00:00 -- -- -- -- -- -- -- -- --
2019-07-21 22:00:00 12.7 2 Oeste 6 Oeste 0 -- -- 90
2019-07-21 21:00:00 12.8 0 Calma 9 Noroeste 0 -- -- 90
2019-07-21 20:00:00 13.1 3 Norte -- -- -- -- -- 90
2019-07-21 19:00:00 -- -- -- -- -- -- -- -- --
2019-07-21 18:00:00 13.7 3 Noroeste 8 Oeste 0 -- -- 90
2019-07-21 17:00:00 13.9 3 Noroeste 8 Noroeste 0 -- -- 89
2019-07-21 16:00:00 13.9 4 Oeste 11 Noroeste 0 -- -- 89
2019-07-21 15:00:00 13.8 4 Noroeste 11 Noroeste 0 -- -- 87
2019-07-21 14:00:00 15.2 5 Noroeste 11 Noroeste 0 -- -- 83
2019-07-21 13:00:00 15.4 5 Noroeste 14 Noroeste 0 -- -- 85
2019-07-21 12:00:00 15 6 Noroeste -- -- -- -- -- 85
2019-07-21 11:00:00 -- -- -- -- -- -- -- -- --
2019-07-21 10:00:00 -- -- -- -- -- -- -- -- --
2019-07-21 09:00:00 -- -- -- -- -- -- -- -- --
2019-07-21 08:00:00 -- -- -- -- -- -- -- -- --
2019-07-21 07:00:00 -- -- -- -- -- -- -- -- --
2019-07-21 06:00:00 -- -- -- -- -- -- -- -- --
2019-07-21 05:00:00 -- -- -- -- -- -- -- -- --
2019-07-21 04:00:00 -- -- -- -- -- -- -- -- --
2019-07-21 03:00:00 -- -- -- -- -- -- -- -- --
2019-07-21 02:00:00 -- -- -- -- -- -- -- -- --
2019-07-21 01:00:00 -- -- -- -- -- -- -- -- --
2019-07-21 00:00:00 -- -- -- -- -- -- -- -- --